Retour au catalogue

FENGYUN 1C DEB

LostSSO
NORAD 38831·DEBRIS·🇨🇳 China

Lancé May 10, 1999 depuis Taiyuan Satellite Launch Center

Loading…

Prochains Passages (prochaines 24 heures)

TLE

PériméSource: Space-Track

Époque: Jul 26, 2018, 14:16 UTC

1 38831U 99025EVX 18207.59496050 +.00000365 +00000-0 +25963-3 0  9996
2 38831 099.2309 214.9187 0057028 039.0780 321.4957 14.03275232503501

Suivez FENGYUN 1C DEB en temps réel avec AllMySat

Download on the App Store